Location: Newark
(14.1000°N, 87.2167°W)
Time: 07:58:22
(UTC+00:00)

Hubble Space Telescope - Pass Details

Date: 30 July 2019
Orbit: 536 x 540 km, 28.5° (Epoch: 25 August)

Event Time Altitude Azimuth Distance (km) Brightness Sun altitude
Exits shadow 09:46:39 12° 336° (NNW) 1,640 3.3 -24.4°
Maximum altitude 09:47:34 13° 350° (N) 1,597 3.4 -24.2°
Drops below altitude 10° 09:49:30 10° 19° (NNE) 1,779 4.0 -23.7°
Sets 09:52:53 0° 48° (NE) 2,669 5.6 -23.0°
